Time,TemperatureF,DewpointF,PressureIn,WindDirection,WindDirectionDegrees,WindSpeedMPH,WindSpeedGustMPH,Humidity,HourlyPrecipIn,Conditions,Clouds,dailyrainin,SoftwareType,DateUTC
2016-02-07 02:33:00,32.0,28.0,30.21,NW,316,0.0,3.0,85,-99.99,,,-99.99,,2016-02-07 08:33:00,
2016-02-07 02:44:00,35.0,28.0,30.21,WNW,297,1.0,3.0,74,-99.99,,,-99.99,,2016-02-07 08:44:00,
2016-02-07 02:54:00,35.0,27.0,30.21,NW,316,1.0,3.0,72,-99.99,,,-99.99,,2016-02-07 08:54:00,
2016-02-07 03:03:00,35.0,27.0,30.21,NW,316,1.0,3.0,72,-99.99,,,-99.99,,2016-02-07 09:03:00,
2016-02-07 03:13:00,35.0,27.0,30.21,NW,310,1.0,3.0,71,-99.99,,,-99.99,,2016-02-07 09:13:00,
2016-02-07 03:23:00,35.0,27.0,30.21,WNW,291,1.0,2.0,71,-99.99,,,-99.99,,2016-02-07 09:23:00,
2016-02-07 03:34:00,35.0,27.0,30.21,WNW,291,1.0,2.0,71,-99.99,,,-99.99,,2016-02-07 09:34:00,
2016-02-07 03:44:00,34.0,26.0,30.21,WNW,297,1.0,3.0,72,-99.99,,,-99.99,,2016-02-07 09:44:00,
2016-02-07 03:54:00,34.0,26.0,30.21,NW,306,1.0,3.0,71,-99.99,,,-99.99,,2016-02-07 09:54:00,
2016-02-07 04:03:00,34.0,26.0,30.21,NW,306,1.0,3.0,71,-99.99,,,-99.99,,2016-02-07 10:03:00,
2016-02-07 04:13:00,34.0,26.0,30.21,NW,305,0.0,3.0,71,-99.99,,,-99.99,,2016-02-07 10:13:00,
2016-02-07 04:23:00,33.0,26.0,30.22,WNW,298,0.0,1.0,76,-99.99,,,-99.99,,2016-02-07 10:23:00,
2016-02-07 04:33:00,33.0,26.0,30.22,WNW,298,0.0,1.0,76,-99.99,,,-99.99,,2016-02-07 10:33:00,
2016-02-07 04:44:00,33.0,27.0,30.22,WNW,291,0.0,2.0,77,-99.99,,,-99.99,,2016-02-07 10:44:00,
2016-02-07 05:03:00,32.0,26.0,30.21,WNW,303,0.0,1.0,77,-99.99,,,-99.99,,2016-02-07 11:03:00,
2016-02-07 05:13:00,32.0,25.0,30.22,NNW,333,0.0,1.0,76,-99.99,,,-99.99,,2016-02-07 11:13:00,
2016-02-07 05:24:00,32.0,26.0,30.22,WNW,301,0.0,1.0,77,-99.99,,,-99.99,,2016-02-07 11:24:00,
2016-02-07 05:33:00,32.0,26.0,30.22,WNW,301,0.0,1.0,77,-99.99,,,-99.99,,2016-02-07 11:33:00,
2016-02-07 05:43:00,30.0,25.0,30.23,WNW,301,0.0,0.0,83,-99.99,,,-99.99,,2016-02-07 11:43:00,
2016-02-07 05:53:00,29.0,25.0,30.24,WNW,301,0.0,0.0,85,-99.99,,,-99.99,,2016-02-07 11:53:00,
2016-02-07 06:03:00,29.0,25.0,30.24,WNW,301,0.0,0.0,85,-99.99,,,-99.99,,2016-02-07 12:03:00,
2016-02-07 06:13:00,31.0,26.0,30.23,NNW,333,0.0,1.0,82,-99.99,,,-99.99,,2016-02-07 12:13:00,
2016-02-07 06:23:00,32.0,26.0,30.24,NW,316,0.0,2.0,78,-99.99,,,-99.99,,2016-02-07 12:23:00,
2016-02-07 06:34:00,32.0,26.0,30.24,NW,316,0.0,2.0,78,-99.99,,,-99.99,,2016-02-07 12:34:00,
2016-02-07 06:44:00,32.0,25.0,30.24,NW,314,1.0,3.0,76,-99.99,,,-99.99,,2016-02-07 12:44:00,
2016-02-07 06:54:00,32.0,25.0,30.25,NW,308,1.0,4.0,75,-99.99,,,-99.99,,2016-02-07 12:54:00,
2016-02-07 07:06:00,32.0,25.0,30.25,NW,308,1.0,4.0,75,-99.99,,,-99.99,,2016-02-07 13:06:00,
2016-02-07 07:13:00,33.0,26.0,30.25,NW,317,0.0,3.0,75,-99.99,,,-99.99,,2016-02-07 13:13:00,
2016-02-07 07:24:00,33.0,26.0,30.26,WNW,295,0.0,2.0,75,-99.99,,,-99.99,,2016-02-07 13:24:00,
2016-02-07 07:34:00,33.0,26.0,30.26,WNW,295,0.0,2.0,75,-99.99,,,-99.99,,2016-02-07 13:34:00,
2016-02-07 07:44:00,34.0,26.0,30.27,WNW,290,1.0,3.0,73,-99.99,,,-99.99,,2016-02-07 13:44:00,
2016-02-07 07:54:00,35.0,27.0,30.27,West,266,1.0,3.0,72,-99.99,,,-99.99,,2016-02-07 13:54:00,
2016-02-07 08:03:00,35.0,27.0,30.27,West,266,1.0,3.0,72,-99.99,,,-99.99,,2016-02-07 14:03:00,
2016-02-07 08:13:00,37.0,27.0,30.27,WNW,290,0.0,3.0,68,-99.99,,,-99.99,,2016-02-07 14:13:00,
2016-02-07 08:23:00,38.0,27.0,30.26,NW,318,2.0,5.0,64,-99.99,,,-99.99,,2016-02-07 14:23:00,
2016-02-07 08:44:00,40.0,28.0,30.27,NW,324,1.0,6.0,62,-99.99,,,-99.99,,2016-02-07 14:44:00,
2016-02-07 08:54:00,42.0,29.0,30.27,NW,306,1.0,4.0,59,-99.99,,,-99.99,,2016-02-07 14:54:00,
2016-02-07 09:03:00,42.0,29.0,30.27,NW,306,1.0,4.0,59,-99.99,,,-99.99,,2016-02-07 15:03:00,
2016-02-07 09:13:00,44.0,29.0,30.27,NW,307,2.0,5.0,55,-99.99,,,-99.99,,2016-02-07 15:13:00,
2016-02-07 09:23:00,46.0,27.0,30.27,NW,323,4.0,8.0,48,-99.99,,,-99.99,,2016-02-07 15:23:00,
2016-02-07 09:34:00,46.0,27.0,30.27,NW,323,4.0,8.0,48,-99.99,,,-99.99,,2016-02-07 15:34:00,
2016-02-07 10:04:00,49.0,28.0,30.26,NNW,332,4.0,9.0,44,-99.99,,,-99.99,,2016-02-07 16:04:00,
2016-02-07 10:13:00,51.0,29.0,30.26,NW,310,3.0,9.0,42,-99.99,,,-99.99,,2016-02-07 16:13:00,
2016-02-07 10:23:00,51.0,27.0,30.26,NNW,339,3.0,8.0,39,-99.99,,,-99.99,,2016-02-07 16:23:00,
2016-02-07 10:34:00,51.0,27.0,30.26,NNW,339,3.0,8.0,39,-99.99,,,-99.99,,2016-02-07 16:34:00,
2016-02-07 11:03:00,53.0,26.0,30.25,NNW,328,5.0,10.0,35,-99.99,,,-99.99,,2016-02-07 17:03:00,
2016-02-07 11:13:00,53.0,25.0,30.25,NNE,19,8.0,12.0,34,-99.99,,,-99.99,,2016-02-07 17:13:00,
2016-02-07 11:23:00,54.0,26.0,30.24,NNW,333,7.0,15.0,34,-99.99,,,-99.99,,2016-02-07 17:23:00,
2016-02-07 11:33:00,54.0,26.0,30.24,NNW,333,7.0,15.0,34,-99.99,,,-99.99,,2016-02-07 17:33:00,
2016-02-07 11:43:00,54.0,26.0,30.23,NW,307,5.0,12.0,34,-99.99,,,-99.99,,2016-02-07 17:43:00,
2016-02-07 11:54:00,55.0,26.0,30.22,NW,311,4.0,13.0,33,-99.99,,,-99.99,,2016-02-07 17:54:00,
2016-02-07 12:04:00,55.0,26.0,30.22,NW,311,4.0,13.0,33,-99.99,,,-99.99,,2016-02-07 18:04:00,
2016-02-07 12:13:00,55.0,26.0,30.20,NNW,343,5.0,14.0,32,-99.99,,,-99.99,,2016-02-07 18:13:00,
2016-02-07 12:24:00,56.0,27.0,30.19,NW,312,6.0,10.0,32,-99.99,,,-99.99,,2016-02-07 18:24:00,
2016-02-07 12:34:00,56.0,27.0,30.19,NW,312,6.0,10.0,32,-99.99,,,-99.99,,2016-02-07 18:34:00,
2016-02-07 12:57:00,57.0,27.0,30.17,WNW,299,4.0,12.0,32,-99.99,,,-99.99,,2016-02-07 18:57:00,
2016-02-07 13:13:00,57.0,28.0,30.16,NW,317,6.0,11.0,33,-99.99,,,-99.99,,2016-02-07 19:13:00,
2016-02-07 13:24:00,57.0,27.0,30.15,NW,312,2.0,12.0,32,-99.99,,,-99.99,,2016-02-07 19:24:00,
2016-02-07 13:34:00,57.0,27.0,30.15,NW,312,2.0,12.0,32,-99.99,,,-99.99,,2016-02-07 19:34:00,
2016-02-07 13:44:00,57.0,27.0,30.14,NW,307,5.0,13.0,32,-99.99,,,-99.99,,2016-02-07 19:44:00,
2016-02-07 14:04:00,58.0,29.0,30.13,NW,312,4.0,9.0,33,-99.99,,,-99.99,,2016-02-07 20:04:00,
2016-02-07 14:13:00,58.0,28.0,30.12,WNW,298,5.0,17.0,32,-99.99,,,-99.99,,2016-02-07 20:13:00,
2016-02-07 14:24:00,58.0,28.0,30.11,NW,307,4.0,7.0,31,-99.99,,,-99.99,,2016-02-07 20:24:00,
2016-02-07 14:34:00,58.0,28.0,30.11,NW,307,4.0,7.0,31,-99.99,,,-99.99,,2016-02-07 20:34:00,
2016-02-07 14:44:00,58.0,26.0,30.10,NW,305,5.0,12.0,29,-99.99,,,-99.99,,2016-02-07 20:44:00,
2016-02-07 14:54:00,58.0,27.0,30.09,NW,312,3.0,9.0,30,-99.99,,,-99.99,,2016-02-07 20:54:00,
2016-02-07 15:04:00,58.0,27.0,30.09,NW,312,3.0,9.0,30,-99.99,,,-99.99,,2016-02-07 21:04:00,
2016-02-07 15:13:00,58.0,26.0,30.09,SSW,200,2.0,8.0,29,-99.99,,,-99.99,,2016-02-07 21:13:00,
2016-02-07 15:24:00,58.0,25.0,30.08,WNW,290,4.0,9.0,28,-99.99,,,-99.99,,2016-02-07 21:24:00,
2016-02-07 15:34:00,58.0,25.0,30.08,WNW,290,4.0,9.0,28,-99.99,,,-99.99,,2016-02-07 21:34:00,
2016-02-07 15:44:00,59.0,26.0,30.07,WNW,296,1.0,9.0,28,-99.99,,,-99.99,,2016-02-07 21:44:00,
2016-02-07 15:54:00,59.0,26.0,30.08,WSW,244,0.0,6.0,28,-99.99,,,-99.99,,2016-02-07 21:54:00,
2016-02-07 16:04:00,59.0,26.0,30.08,WSW,244,0.0,6.0,28,-99.99,,,-99.99,,2016-02-07 22:04:00,
2016-02-07 16:14:00,59.0,26.0,30.08,NE,34,0.0,4.0,28,-99.99,,,-99.99,,2016-02-07 22:14:00,
2016-02-07 16:24:00,59.0,27.0,30.08,WNW,288,2.0,6.0,29,-99.99,,,-99.99,,2016-02-07 22:24:00,
2016-02-07 16:34:00,59.0,27.0,30.08,WNW,288,2.0,6.0,29,-99.99,,,-99.99,,2016-02-07 22:34:00,
2016-02-07 16:44:00,59.0,25.0,30.08,NW,309,3.0,7.0,27,-99.99,,,-99.99,,2016-02-07 22:44:00,
2016-02-07 16:54:00,59.0,28.0,30.08,WNW,302,2.0,4.0,30,-99.99,,,-99.99,,2016-02-07 22:54:00,
2016-02-07 17:03:00,59.0,28.0,30.08,WNW,302,2.0,4.0,30,-99.99,,,-99.99,,2016-02-07 23:03:00,
2016-02-07 17:13:00,58.0,28.0,30.08,NW,309,2.0,5.0,31,-99.99,,,-99.99,,2016-02-07 23:13:00,
2016-02-07 17:23:00,58.0,29.0,30.08,WNW,287,1.0,2.0,33,-99.99,,,-99.99,,2016-02-07 23:23:00,
2016-02-07 17:34:00,58.0,29.0,30.08,WNW,287,1.0,2.0,33,-99.99,,,-99.99,,2016-02-07 23:34:00,
2016-02-07 17:44:00,56.0,28.0,30.09,WSW,248,0.0,3.0,34,-99.99,,,-99.99,,2016-02-07 23:44:00,
2016-02-07 17:54:00,54.0,28.0,30.09,WSW,241,0.0,2.0,36,-99.99,,,-99.99,,2016-02-07 23:54:00,
2016-02-07 18:03:00,54.0,28.0,30.09,WSW,241,0.0,2.0,36,-99.99,,,-99.99,,2016-02-08 00:03:00,
2016-02-07 18:13:00,53.0,29.0,30.10,WSW,255,0.0,2.0,39,-99.99,,,-99.99,,2016-02-08 00:13:00,
2016-02-07 18:23:00,50.0,30.0,30.10,West,259,1.0,4.0,46,-99.99,,,-99.99,,2016-02-08 00:23:00,
2016-02-07 18:34:00,50.0,30.0,30.10,West,259,1.0,4.0,46,-99.99,,,-99.99,,2016-02-08 00:34:00,